AUA436 LEAL-LOWW

Flight info

Callsign AUA436
Flight time 2h 23m
Altitude 38000
Route MITOS N851 ISTER DCT NIVDA DCT OMEDA DCT RAPUR DCT TORTU DCT ERTEV/N0435F390 DCT ARALD DCT ABTAN ABTAN2W
Aircraft A320/M-SDE3FGHIRWY/LB1

Departure

Time 2026-04-20 13:27
Airport Alicante-Elche Miguel Hernández Airport (LEAL)

Arrival

Time 2026-04-20 15:51
Airport Vienna International Airport (LOWW)
Time Latitude Longitude Altitude Speed Heading
2026-04-20 12:59 38.28550 -0.55450 93 ft 0 kts 10°
2026-04-20 13:18 38.28542 -0.55452 95 ft 4 kts
2026-04-20 13:19 38.28515 -0.55455 94 ft 4 kts 355°
2026-04-20 13:19 38.28489 -0.55448 95 ft 4 kts 331°
2026-04-20 13:19 38.28472 -0.55427 94 ft 3 kts 282°
2026-04-20 13:19 38.28472 -0.55424 94 ft 1 kts 280°
2026-04-20 13:21 38.28472 -0.55427 95 ft 2 kts 280°
2026-04-20 13:21 38.28476 -0.55458 97 ft 5 kts 275°
2026-04-20 13:22 38.28459 -0.55483 98 ft 4 kts 269°
2026-04-20 13:22 38.28486 -0.55540 100 ft 11 kts 288°
2026-04-20 13:22 38.28426 -0.55606 97 ft 14 kts 189°
2026-04-20 13:22 38.28371 -0.55661 96 ft 11 kts 276°
2026-04-20 13:23 38.28385 -0.55740 98 ft 8 kts 280°
2026-04-20 13:23 38.28395 -0.55811 96 ft 10 kts 279°
2026-04-20 13:23 38.28411 -0.55933 96 ft 16 kts 282°
2026-04-20 13:23 38.28432 -0.56078 97 ft 17 kts 280°
2026-04-20 13:24 38.28451 -0.56222 100 ft 15 kts 280°
2026-04-20 13:24 38.28467 -0.56337 105 ft 11 kts 281°
2026-04-20 13:24 38.28478 -0.56409 108 ft 6 kts 281°
2026-04-20 13:24 38.28485 -0.56462 110 ft 11 kts 279°
2026-04-20 13:25 38.28506 -0.56615 117 ft 22 kts 279°
2026-04-20 13:25 38.28536 -0.56834 126 ft 26 kts 280°
2026-04-20 13:25 38.28567 -0.57054 136 ft 24 kts 280°
2026-04-20 13:25 38.28595 -0.57254 145 ft 22 kts 280°
2026-04-20 13:26 38.28606 -0.57399 151 ft 11 kts 242°
2026-04-20 13:26 38.28534 -0.57432 150 ft 13 kts 190°
2026-04-20 13:26 38.28450 -0.57431 152 ft 12 kts 144°
2026-04-20 13:26 38.28426 -0.57315 148 ft 18 kts 99°
2026-04-20 13:27 38.28368 -0.56901 136 ft 86 kts 99°
2026-04-20 13:27 38.28222 -0.55860 105 ft 151 kts 101°
2026-04-20 13:27 38.28023 -0.54500 648 ft 157 kts 104°
2026-04-20 13:27 38.27795 -0.53129 1368 ft 160 kts 103°
2026-04-20 13:28 38.27528 -0.51642 1876 ft 183 kts 104°
2026-04-20 13:28 38.27328 -0.49945 2281 ft 207 kts 91°
2026-04-20 13:28 38.27540 -0.48038 2647 ft 235 kts 72°
2026-04-20 13:28 38.28320 -0.46062 3187 ft 259 kts 56°
2026-04-20 13:29 38.29346 -0.44122 4038 ft 267 kts 56°
2026-04-20 13:29 38.30390 -0.42148 5052 ft 269 kts 56°
2026-04-20 13:29 38.31438 -0.40165 6106 ft 270 kts 56°
2026-04-20 13:29 38.32489 -0.38171 7054 ft 273 kts 56°
2026-04-20 13:30 38.33514 -0.36149 7927 ft 278 kts 62°
2026-04-20 13:30 38.34289 -0.33876 8819 ft 283 kts 68°
2026-04-20 13:30 38.35017 -0.31526 9686 ft 288 kts 69°
2026-04-20 13:30 38.35758 -0.29112 10347 ft 301 kts 69°
2026-04-20 13:31 38.36559 -0.26533 10690 ft 324 kts 68°
2026-04-20 13:31 38.37441 -0.23833 11295 ft 335 kts 66°
2026-04-20 13:31 38.38367 -0.21068 11995 ft 343 kts 66°
2026-04-20 13:31 38.39318 -0.18252 12773 ft 348 kts 66°
2026-04-20 13:32 38.40280 -0.15402 13539 ft 353 kts 66°
2026-04-20 13:32 38.41255 -0.12501 14231 ft 359 kts 66°
2026-04-20 13:32 38.42240 -0.09556 14910 ft 363 kts 66°
2026-04-20 13:32 38.43229 -0.06574 15603 ft 367 kts 67°
2026-04-20 13:33 38.44227 -0.03552 16275 ft 372 kts 67°
2026-04-20 13:33 38.45235 -0.00492 16958 ft 376 kts 67°
2026-04-20 13:33 38.46242 0.02603 17630 ft 380 kts 67°
2026-04-20 13:33 38.47254 0.05742 18294 ft 385 kts 68°
2026-04-20 13:34 38.48272 0.08918 18867 ft 389 kts 68°
2026-04-20 13:34 38.49299 0.12130 19470 ft 392 kts 67°
2026-04-20 13:34 38.50332 0.15362 20075 ft 395 kts 67°
2026-04-20 13:34 38.51372 0.18620 20686 ft 398 kts 67°
2026-04-20 13:35 38.52420 0.21904 21292 ft 401 kts 67°
2026-04-20 13:35 38.53475 0.25213 21893 ft 404 kts 66°
2026-04-20 13:35 38.54541 0.28547 22491 ft 407 kts 66°
2026-04-20 13:35 38.55616 0.31909 23087 ft 410 kts 66°
2026-04-20 13:36 38.56698 0.35298 23658 ft 414 kts 66°
2026-04-20 13:36 38.57787 0.38714 24136 ft 417 kts 66°
2026-04-20 13:36 38.58883 0.42158 24614 ft 420 kts 66°
2026-04-20 13:36 38.59984 0.45627 25071 ft 423 kts 66°
2026-04-20 13:37 38.61094 0.49127 25537 ft 426 kts 66°
2026-04-20 13:37 38.62209 0.52646 25979 ft 428 kts 66°
2026-04-20 13:37 38.63329 0.56190 26410 ft 431 kts 66°
2026-04-20 13:37 38.64454 0.59756 26838 ft 434 kts 66°
2026-04-20 13:38 38.65584 0.63349 27267 ft 437 kts 66°
2026-04-20 13:38 38.66718 0.66971 27660 ft 440 kts 66°
2026-04-20 13:38 38.67860 0.70617 28052 ft 443 kts 66°
2026-04-20 13:38 38.69013 0.74289 28446 ft 446 kts 66°
2026-04-20 13:39 38.70157 0.77933 28835 ft 448 kts 66°
2026-04-20 13:39 38.71339 0.81693 29231 ft 451 kts 66°
2026-04-20 13:39 38.72496 0.85377 29604 ft 453 kts 66°
2026-04-20 13:39 38.73673 0.89133 29972 ft 456 kts 66°
2026-04-20 13:40 38.74851 0.92913 30295 ft 458 kts 66°
2026-04-20 13:40 38.76033 0.96716 30594 ft 461 kts 66°
2026-04-20 13:40 38.77220 1.00538 30887 ft 463 kts 66°
2026-04-20 13:40 38.78410 1.04380 31169 ft 465 kts 66°
2026-04-20 13:41 38.79608 1.08240 31445 ft 467 kts 66°
2026-04-20 13:41 38.80813 1.12121 31729 ft 469 kts 66°
2026-04-20 13:41 38.82014 1.16004 32109 ft 468 kts 66°
2026-04-20 13:41 38.83212 1.19882 32494 ft 468 kts 66°
2026-04-20 13:42 38.84407 1.23758 32883 ft 467 kts 66°
2026-04-20 13:42 38.86786 1.31503 33649 ft 466 kts 66°
2026-04-20 13:42 38.87974 1.35370 34036 ft 466 kts 66°
2026-04-20 13:43 38.89161 1.39233 34365 ft 465 kts 66°
2026-04-20 13:43 38.90346 1.43105 34671 ft 465 kts 67°
2026-04-20 13:43 38.91528 1.46961 34972 ft 465 kts 67°
2026-04-20 13:43 38.92702 1.50831 35267 ft 465 kts 67°
2026-04-20 13:44 38.93855 1.54712 35553 ft 465 kts 68°
2026-04-20 13:44 38.94993 1.58600 35826 ft 465 kts 68°
2026-04-20 13:44 38.96129 1.62490 36096 ft 465 kts 68°
2026-04-20 13:44 38.97268 1.66386 36365 ft 465 kts 68°
2026-04-20 13:45 38.98407 1.70274 36618 ft 465 kts 68°
2026-04-20 13:45 38.99546 1.74163 36871 ft 465 kts 68°
2026-04-20 13:45 39.00683 1.78051 37120 ft 465 kts 68°
2026-04-20 13:45 39.01821 1.81939 37360 ft 465 kts 68°
2026-04-20 13:46 39.02959 1.85827 37603 ft 465 kts 68°
2026-04-20 13:46 39.04085 1.89664 37832 ft 464 kts 68°
2026-04-20 13:46 39.05223 1.93556 37986 ft 465 kts 68°
2026-04-20 13:46 39.06354 1.97437 38013 ft 463 kts 68°
2026-04-20 13:47 39.08600 2.05201 38012 ft 463 kts 68°
2026-04-20 13:47 39.10838 2.12962 38021 ft 463 kts 68°
2026-04-20 13:48 39.13078 2.20730 38013 ft 462 kts 68°
2026-04-20 13:48 39.15321 2.28492 38014 ft 462 kts 68°
2026-04-20 13:49 39.17550 2.36263 38014 ft 462 kts 68°
2026-04-20 13:49 39.19776 2.44040 38007 ft 462 kts 68°
2026-04-20 13:50 39.21993 2.51822 38008 ft 462 kts 68°
2026-04-20 13:50 39.24207 2.59608 38016 ft 462 kts 68°
2026-04-20 13:51 39.26045 2.66086 38013 ft 463 kts 68°
2026-04-20 13:51 39.28248 2.73893 38014 ft 463 kts 69°
2026-04-20 13:52 39.30446 2.81694 38013 ft 463 kts 68°
2026-04-20 13:52 39.32649 2.89511 38019 ft 463 kts 68°
2026-04-20 13:53 39.34849 2.97329 38026 ft 463 kts 68°
2026-04-20 13:53 39.37031 3.05148 38024 ft 463 kts 69°
2026-04-20 13:54 39.39197 3.12926 38023 ft 463 kts 69°
2026-04-20 13:54 39.41372 3.20753 38024 ft 462 kts 69°
2026-04-20 13:55 39.43956 3.28324 38023 ft 459 kts 57°
2026-04-20 13:55 39.47242 3.35411 38026 ft 460 kts 57°
2026-04-20 13:56 39.50505 3.42526 38024 ft 460 kts 57°
2026-04-20 13:56 39.53765 3.49653 38032 ft 460 kts 57°
2026-04-20 13:57 39.57026 3.56779 38028 ft 460 kts 57°
2026-04-20 13:57 39.60282 3.63920 38026 ft 460 kts 57°
2026-04-20 13:58 39.63539 3.71065 38027 ft 460 kts 57°
2026-04-20 13:58 39.66802 3.78222 38028 ft 461 kts 57°
2026-04-20 13:59 39.70049 3.85388 38039 ft 461 kts 57°
2026-04-20 13:59 39.73269 3.92522 38038 ft 461 kts 57°
2026-04-20 14:00 39.76510 3.99704 38045 ft 461 kts 57°
2026-04-20 14:00 39.79749 4.06890 38043 ft 461 kts 57°
2026-04-20 14:01 39.82984 4.14082 38047 ft 461 kts 57°
2026-04-20 14:01 39.86215 4.21281 38038 ft 461 kts 58°
2026-04-20 14:02 39.89443 4.28487 38037 ft 461 kts 58°
2026-04-20 14:02 39.92665 4.35696 38034 ft 460 kts 58°
2026-04-20 14:03 39.95891 4.42905 38051 ft 460 kts 57°
2026-04-20 14:03 39.99114 4.50115 38036 ft 460 kts 57°
2026-04-20 14:04 40.02335 4.57339 38025 ft 460 kts 58°
2026-04-20 14:04 40.05541 4.64573 38020 ft 461 kts 57°
2026-04-20 14:05 40.09357 4.71228 38015 ft 458 kts 47°
2026-04-20 14:05 40.13437 4.77614 38016 ft 458 kts 47°
2026-04-20 14:06 40.17498 4.83979 38030 ft 459 kts 47°
2026-04-20 14:06 40.21600 4.90443 38031 ft 459 kts 47°
2026-04-20 14:07 40.25645 4.96833 38038 ft 459 kts 47°
2026-04-20 14:07 40.29715 5.03273 38036 ft 459 kts 47°
2026-04-20 14:08 40.33785 5.09718 38032 ft 459 kts 47°
2026-04-20 14:08 40.37850 5.16170 38043 ft 459 kts 47°
2026-04-20 14:09 40.41916 5.22633 38039 ft 459 kts 47°
2026-04-20 14:09 40.45972 5.29111 38031 ft 459 kts 47°
2026-04-20 14:10 40.50023 5.35596 38027 ft 459 kts 47°
2026-04-20 14:10 40.54077 5.42088 38029 ft 459 kts 47°
2026-04-20 14:11 40.58131 5.48581 38024 ft 459 kts 47°
2026-04-20 14:11 40.62179 5.55087 38019 ft 460 kts 47°
2026-04-20 14:12 40.66220 5.61608 38023 ft 460 kts 47°
2026-04-20 14:12 40.70233 5.68101 38017 ft 460 kts 47°
2026-04-20 14:13 40.74280 5.74648 38027 ft 460 kts 47°
2026-04-20 14:13 40.78324 5.81199 38050 ft 461 kts 47°
2026-04-20 14:14 40.82356 5.87759 38028 ft 460 kts 47°
2026-04-20 14:14 40.86388 5.94338 38032 ft 460 kts 47°
2026-04-20 14:15 40.90419 6.00917 38030 ft 461 kts 47°
2026-04-20 14:15 40.94450 6.07501 38024 ft 460 kts 47°
2026-04-20 14:16 40.98471 6.14098 38035 ft 461 kts 47°
2026-04-20 14:16 41.02494 6.20705 38030 ft 461 kts 47°
2026-04-20 14:17 41.06484 6.27264 38027 ft 461 kts 47°
2026-04-20 14:17 41.10497 6.33895 38025 ft 461 kts 47°
2026-04-20 14:18 41.14503 6.40523 38023 ft 460 kts 47°
2026-04-20 14:18 41.18505 6.47157 38034 ft 460 kts 47°
2026-04-20 14:19 41.22499 6.53793 38031 ft 460 kts 47°
2026-04-20 14:19 41.26503 6.60419 38021 ft 460 kts 46°
2026-04-20 14:20 41.30582 6.66966 38016 ft 459 kts 46°
2026-04-20 14:20 41.34676 6.73488 38014 ft 459 kts 46°
2026-04-20 14:21 41.38751 6.80049 38035 ft 460 kts 46°
2026-04-20 14:21 41.42812 6.86629 38027 ft 460 kts 46°
2026-04-20 14:22 41.46870 6.93217 38016 ft 460 kts 46°
2026-04-20 14:22 41.50925 6.99805 38013 ft 459 kts 46°
2026-04-20 14:23 41.54950 7.06358 38010 ft 460 kts 46°
2026-04-20 14:23 41.58996 7.12967 38022 ft 460 kts 46°
2026-04-20 14:24 41.63047 7.19590 38017 ft 460 kts 46°
2026-04-20 14:24 41.67091 7.26218 38011 ft 460 kts 46°
2026-04-20 14:25 41.71133 7.32856 38013 ft 460 kts 46°
2026-04-20 14:25 41.75171 7.39498 38027 ft 460 kts 46°
2026-04-20 14:26 41.79199 7.46153 38017 ft 460 kts 46°
2026-04-20 14:26 41.83221 7.52818 38012 ft 460 kts 46°
2026-04-20 14:27 41.87248 7.59486 38011 ft 460 kts 46°
2026-04-20 14:27 41.91266 7.66153 38009 ft 459 kts 46°
2026-04-20 14:28 41.95248 7.72789 38031 ft 459 kts 46°
2026-04-20 14:28 41.99254 7.79467 38019 ft 459 kts 46°
2026-04-20 14:29 42.03251 7.86156 38012 ft 459 kts 46°
2026-04-20 14:29 42.07280 7.92898 38012 ft 459 kts 46°
2026-04-20 14:30 42.11243 7.99554 38008 ft 459 kts 46°
2026-04-20 14:30 42.15229 8.06261 38021 ft 459 kts 46°
2026-04-20 14:31 42.19205 8.12977 38017 ft 458 kts 46°
2026-04-20 14:31 42.23179 8.19705 37997 ft 458 kts 46°
2026-04-20 14:32 42.27142 8.26430 37995 ft 458 kts 46°
2026-04-20 14:32 42.31203 8.33013 38000 ft 452 kts 38°
2026-04-20 14:33 42.36187 8.37922 37991 ft 438 kts 20°
2026-04-20 14:33 42.41746 8.41103 37983 ft 433 kts 16°
2026-04-20 14:34 42.47329 8.44189 37970 ft 434 kts 16°
2026-04-20 14:34 42.52913 8.47299 37963 ft 434 kts 16°
2026-04-20 14:35 42.58492 8.50415 37956 ft 434 kts 16°
2026-04-20 14:35 42.64070 8.53534 37955 ft 434 kts 16°
2026-04-20 14:36 42.69651 8.56657 37952 ft 434 kts 16°
2026-04-20 14:36 42.75238 8.59773 37973 ft 434 kts 16°
2026-04-20 14:37 42.80829 8.62901 37967 ft 434 kts 16°
2026-04-20 14:37 42.86411 8.66047 37966 ft 434 kts 16°
2026-04-20 14:38 42.91956 8.69176 37984 ft 434 kts 16°
2026-04-20 14:38 42.97535 8.72326 37979 ft 434 kts 16°
2026-04-20 14:39 43.03110 8.75484 37982 ft 434 kts 16°
2026-04-20 14:39 43.08687 8.78649 37979 ft 433 kts 16°
2026-04-20 14:40 43.14257 8.81803 37992 ft 433 kts 16°
2026-04-20 14:40 43.19825 8.84962 37980 ft 433 kts 16°
2026-04-20 14:41 43.25385 8.88144 37974 ft 433 kts 16°
2026-04-20 14:41 43.30943 8.91331 38000 ft 432 kts 16°
2026-04-20 14:42 43.36500 8.94456 37985 ft 428 kts 12°
2026-04-20 14:42 43.42229 8.95853 37975 ft 412 kts 354°
2026-04-20 14:43 43.46980 8.95823 37970 ft 411 kts 353°
2026-04-20 14:43 43.53670 8.95828 37989 ft 411 kts 353°
2026-04-20 14:44 43.58409 8.96719 37971 ft 429 kts 18°
2026-04-20 14:44 43.63589 9.01024 37950 ft 437 kts 26°
2026-04-20 14:45 43.68701 9.05589 37961 ft 438 kts 26°
2026-04-20 14:45 43.73821 9.10165 37955 ft 438 kts 26°
2026-04-20 14:46 43.78822 9.15049 37958 ft 444 kts 33°
2026-04-20 14:46 43.83370 9.20933 37961 ft 449 kts 39°
2026-04-20 14:47 43.87740 9.27138 37984 ft 450 kts 39°
2026-04-20 14:48 43.94428 9.36213 37972 ft 448 kts 37°
2026-04-20 14:48 43.98958 9.42152 37972 ft 448 kts 37°
2026-04-20 14:49 44.03480 9.48110 37998 ft 449 kts 37°
2026-04-20 14:49 44.07956 9.54084 37984 ft 449 kts 37°
2026-04-20 14:50 44.12461 9.60132 37980 ft 450 kts 37°
2026-04-20 14:50 44.16966 9.66178 37982 ft 450 kts 37°
2026-04-20 14:51 44.21469 9.72227 37990 ft 450 kts 38°
2026-04-20 14:51 44.25977 9.78281 37985 ft 450 kts 38°
2026-04-20 14:52 44.30478 9.84340 37979 ft 450 kts 37°
2026-04-20 14:52 44.34986 9.90431 37955 ft 451 kts 38°
2026-04-20 14:53 44.39489 9.96546 37955 ft 451 kts 38°
2026-04-20 14:53 44.43995 10.02663 37981 ft 451 kts 38°
2026-04-20 14:54 44.48499 10.08783 37984 ft 451 kts 38°
2026-04-20 14:54 44.53000 10.14917 37994 ft 451 kts 38°
2026-04-20 14:55 44.57463 10.21012 37986 ft 451 kts 38°
2026-04-20 14:55 44.61961 10.27176 37963 ft 452 kts 38°
2026-04-20 14:56 44.66456 10.33351 38035 ft 452 kts 38°
2026-04-20 14:56 44.70947 10.39533 38024 ft 452 kts 38°
2026-04-20 14:57 44.75431 10.45728 38034 ft 452 kts 38°
2026-04-20 14:57 44.79914 10.51938 38025 ft 452 kts 38°
2026-04-20 14:58 44.84399 10.58148 38015 ft 452 kts 38°
2026-04-20 14:58 44.88883 10.64373 38035 ft 452 kts 38°
2026-04-20 14:59 44.93365 10.70608 38022 ft 452 kts 38°
2026-04-20 14:59 44.97846 10.76861 38014 ft 453 kts 38°
2026-04-20 15:00 45.02286 10.83079 37964 ft 452 kts 38°
2026-04-20 15:00 45.06748 10.89338 37975 ft 452 kts 38°
2026-04-20 15:01 45.11208 10.95597 37953 ft 451 kts 38°
2026-04-20 15:01 45.15659 11.01865 37941 ft 451 kts 38°
2026-04-20 15:02 45.20107 11.08143 37935 ft 451 kts 38°
2026-04-20 15:02 45.24549 11.14427 37952 ft 451 kts 38°
2026-04-20 15:03 45.28992 11.20727 37952 ft 451 kts 38°
2026-04-20 15:03 45.33430 11.27036 37979 ft 451 kts 39°
2026-04-20 15:04 45.37862 11.33366 37973 ft 452 kts 39°
2026-04-20 15:04 45.42294 11.39698 38002 ft 452 kts 39°
2026-04-20 15:05 45.46723 11.46035 37980 ft 451 kts 39°
2026-04-20 15:05 45.51149 11.52379 37976 ft 451 kts 39°
2026-04-20 15:06 45.55573 11.58745 37972 ft 451 kts 39°
2026-04-20 15:06 45.59989 11.65115 37988 ft 451 kts 39°
2026-04-20 15:07 45.64369 11.71450 37979 ft 451 kts 39°
2026-04-20 15:07 45.68771 11.77831 37977 ft 451 kts 39°
2026-04-20 15:08 45.73169 11.84221 37992 ft 451 kts 39°
2026-04-20 15:08 45.77564 11.90617 37999 ft 450 kts 39°
2026-04-20 15:09 45.81951 11.97020 37988 ft 450 kts 39°
2026-04-20 15:09 45.86331 12.03435 37977 ft 450 kts 39°
2026-04-20 15:10 45.90709 12.09853 37968 ft 450 kts 39°
2026-04-20 15:10 45.95083 12.16274 37978 ft 449 kts 39°
2026-04-20 15:11 45.99447 12.22711 37964 ft 448 kts 40°
2026-04-20 15:11 46.03761 12.29086 37943 ft 448 kts 39°
2026-04-20 15:12 46.08106 12.35519 37936 ft 448 kts 39°
2026-04-20 15:12 46.12478 12.42002 37947 ft 448 kts 39°
2026-04-20 15:13 46.16782 12.48401 37935 ft 447 kts 39°
2026-04-20 15:13 46.21097 12.54846 37933 ft 446 kts 40°
2026-04-20 15:14 46.25414 12.61300 37939 ft 447 kts 40°
2026-04-20 15:14 46.29727 12.67764 37946 ft 446 kts 39°
2026-04-20 15:15 46.34028 12.74217 37943 ft 446 kts 39°
2026-04-20 15:15 46.38329 12.80679 37959 ft 446 kts 40°
2026-04-20 15:16 46.42614 12.87153 37955 ft 445 kts 40°
2026-04-20 15:16 46.46895 12.93635 37969 ft 445 kts 40°
2026-04-20 15:17 46.51179 13.00138 37985 ft 445 kts 40°
2026-04-20 15:17 46.55454 13.06644 37972 ft 445 kts 40°
2026-04-20 15:18 46.59730 13.13149 37967 ft 445 kts 40°
2026-04-20 15:18 46.63999 13.19666 37972 ft 445 kts 40°
2026-04-20 15:19 46.68118 13.26335 37961 ft 451 kts 49°
2026-04-20 15:19 46.71213 13.34383 37960 ft 458 kts 58°
2026-04-20 15:20 46.74138 13.42627 37965 ft 458 kts 57°
2026-04-20 15:20 46.77084 13.50873 37969 ft 459 kts 57°
2026-04-20 15:21 46.80015 13.59145 38005 ft 460 kts 57°
2026-04-20 15:21 46.82938 13.67457 37977 ft 460 kts 57°
2026-04-20 15:22 46.85863 13.75783 37975 ft 461 kts 57°
2026-04-20 15:22 46.88790 13.84135 37983 ft 462 kts 57°
2026-04-20 15:23 46.91709 13.92500 37980 ft 462 kts 57°
2026-04-20 15:23 46.94620 14.00895 38010 ft 463 kts 58°
2026-04-20 15:24 46.97532 14.09309 37993 ft 464 kts 57°
2026-04-20 15:24 47.00456 14.17751 37989 ft 465 kts 57°
2026-04-20 15:24 47.01930 14.22010 37786 ft 475 kts 57°
2026-04-20 15:25 47.03434 14.26353 37506 ft 480 kts 58°
2026-04-20 15:25 47.04938 14.30723 37238 ft 480 kts 58°
2026-04-20 15:25 47.06436 14.35092 36980 ft 478 kts 57°
2026-04-20 15:25 47.07925 14.39454 36705 ft 477 kts 58°
2026-04-20 15:26 47.09400 14.43794 36362 ft 474 kts 58°
2026-04-20 15:26 47.10816 14.48092 35793 ft 475 kts 62°
2026-04-20 15:26 47.11899 14.52695 35264 ft 479 kts 70°
2026-04-20 15:26 47.12717 14.57434 34720 ft 478 kts 70°
2026-04-20 15:27 47.13533 14.62159 34170 ft 476 kts 70°
2026-04-20 15:27 47.14347 14.66867 33570 ft 475 kts 70°
2026-04-20 15:27 47.15153 14.71552 33043 ft 471 kts 70°
2026-04-20 15:27 47.15950 14.76208 32512 ft 469 kts 70°
2026-04-20 15:28 47.16740 14.80840 31986 ft 466 kts 70°
2026-04-20 15:28 47.17776 14.85242 31787 ft 444 kts 55°
2026-04-20 15:28 47.19305 14.89048 31687 ft 424 kts 49°
2026-04-20 15:28 47.20864 14.92665 31589 ft 413 kts 48°
2026-04-20 15:29 47.22410 14.96226 31490 ft 413 kts 48°
2026-04-20 15:29 47.25589 15.03437 31192 ft 434 kts 47°
2026-04-20 15:29 47.27250 15.07190 30940 ft 440 kts 47°
2026-04-20 15:30 47.28912 15.10990 30691 ft 442 kts 47°
2026-04-20 15:30 47.30566 15.14811 30446 ft 442 kts 48°
2026-04-20 15:30 47.32210 15.18635 30201 ft 441 kts 48°
2026-04-20 15:30 47.33848 15.22457 29940 ft 440 kts 48°
2026-04-20 15:31 47.35482 15.26268 29642 ft 439 kts 48°
2026-04-20 15:31 47.37112 15.30062 29373 ft 437 kts 48°
2026-04-20 15:31 47.38734 15.33829 29083 ft 435 kts 48°
2026-04-20 15:31 47.40350 15.37588 28874 ft 433 kts 47°
2026-04-20 15:32 47.41972 15.41354 28331 ft 434 kts 47°
2026-04-20 15:32 47.43580 15.45097 27785 ft 432 kts 49°
2026-04-20 15:32 47.45187 15.48849 27250 ft 431 kts 49°
2026-04-20 15:32 47.46784 15.52586 26731 ft 429 kts 49°
2026-04-20 15:33 47.48374 15.56307 26214 ft 427 kts 50°
2026-04-20 15:33 47.49957 15.60019 25711 ft 425 kts 50°
2026-04-20 15:33 47.51529 15.63709 25220 ft 423 kts 50°
2026-04-20 15:33 47.53094 15.67384 24732 ft 421 kts 51°
2026-04-20 15:34 47.54638 15.71059 24226 ft 420 kts 51°
2026-04-20 15:34 47.55650 15.73503 23838 ft 421 kts 52°
2026-04-20 15:34 47.57172 15.77218 23221 ft 422 kts 53°
2026-04-20 15:34 47.58688 15.80951 22510 ft 423 kts 54°
2026-04-20 15:35 47.60204 15.84700 21829 ft 424 kts 54°
2026-04-20 15:35 47.62213 15.89664 20935 ft 424 kts 54°
2026-04-20 15:35 47.63236 15.92193 20500 ft 424 kts 54°
2026-04-20 15:35 47.64752 15.95931 19846 ft 422 kts 55°
2026-04-20 15:36 47.66264 15.99652 19225 ft 422 kts 55°
2026-04-20 15:36 47.67780 16.03375 18608 ft 420 kts 55°
2026-04-20 15:36 47.69285 16.07085 17962 ft 419 kts 55°
2026-04-20 15:36 47.70777 16.10777 17275 ft 417 kts 56°
2026-04-20 15:37 47.72264 16.14467 16586 ft 415 kts 56°
2026-04-20 15:37 47.73741 16.18133 15936 ft 413 kts 56°
2026-04-20 15:37 47.75200 16.21759 15298 ft 402 kts 56°
2026-04-20 15:37 47.76597 16.25254 14670 ft 384 kts 56°
2026-04-20 15:38 47.77930 16.28597 14059 ft 368 kts 56°
2026-04-20 15:38 47.79213 16.31809 13404 ft 355 kts 56°
2026-04-20 15:38 47.80457 16.34919 12731 ft 344 kts 56°
2026-04-20 15:38 47.81657 16.37922 12096 ft 333 kts 56°
2026-04-20 15:39 47.82826 16.40848 11472 ft 324 kts 56°
2026-04-20 15:39 47.83961 16.43694 10860 ft 316 kts 56°
2026-04-20 15:39 47.85066 16.46471 10266 ft 309 kts 56°
2026-04-20 15:39 47.86153 16.49200 9654 ft 304 kts 56°
2026-04-20 15:40 47.87222 16.51881 8998 ft 298 kts 56°
2026-04-20 15:40 47.88265 16.54497 8397 ft 297 kts 56°
2026-04-20 15:40 47.89319 16.57148 7771 ft 290 kts 56°
2026-04-20 15:40 47.90331 16.59704 7158 ft 283 kts 56°
2026-04-20 15:41 47.91301 16.62156 6563 ft 275 kts 56°
2026-04-20 15:41 47.92395 16.64426 5861 ft 264 kts 36°
2026-04-20 15:41 47.93996 16.65468 5145 ft 247 kts 359°
2026-04-20 15:41 47.95617 16.64946 4427 ft 237 kts 335°
2026-04-20 15:42 47.97157 16.64081 3707 ft 237 kts 341°
2026-04-20 15:42 47.98741 16.63728 3428 ft 222 kts
2026-04-20 15:42 48.00104 16.64643 3173 ft 215 kts 39°
2026-04-20 15:42 48.00820 16.66526 3035 ft 215 kts 76°
2026-04-20 15:43 48.00655 16.68744 2998 ft 221 kts 113°
2026-04-20 15:43 47.99654 16.70472 3012 ft 223 kts 150°
2026-04-20 15:43 47.98239 16.71384 3003 ft 222 kts 166°
2026-04-20 15:43 47.96756 16.72034 3007 ft 222 kts 165°
2026-04-20 15:44 47.95284 16.72714 2997 ft 221 kts 165°
2026-04-20 15:44 47.93818 16.73401 3000 ft 222 kts 165°
2026-04-20 15:44 47.92361 16.74086 3011 ft 222 kts 165°
2026-04-20 15:44 47.90876 16.74608 2994 ft 216 kts 184°
2026-04-20 15:45 47.89490 16.73990 2996 ft 207 kts 221°
2026-04-20 15:45 47.88647 16.72356 3001 ft 197 kts 258°
2026-04-20 15:45 47.88648 16.70412 3004 ft 185 kts 296°
2026-04-20 15:45 47.89359 16.68844 3001 ft 184 kts 313°
2026-04-20 15:46 47.90241 16.67456 3007 ft 184 kts 318°
2026-04-20 15:46 47.91347 16.66503 2999 ft 187 kts 341°
2026-04-20 15:46 47.92600 16.65974 3009 ft 187 kts 342°
2026-04-20 15:46 47.93852 16.65453 3004 ft 187 kts 342°
2026-04-20 15:47 47.95107 16.64927 3011 ft 188 kts 342°
2026-04-20 15:47 47.96352 16.64405 3009 ft 182 kts 342°
2026-04-20 15:47 47.97544 16.63905 2899 ft 176 kts 343°
2026-04-20 15:47 47.98714 16.63412 2703 ft 174 kts 342°
2026-04-20 15:48 47.99861 16.62930 2517 ft 168 kts 342°
2026-04-20 15:48 48.00948 16.62473 2271 ft 156 kts 342°
2026-04-20 15:48 48.01949 16.62052 2057 ft 143 kts 341°
2026-04-20 15:48 48.02857 16.61670 1893 ft 130 kts 341°
2026-04-20 15:49 48.03709 16.61310 1728 ft 126 kts 341°
2026-04-20 15:49 48.04546 16.60959 1548 ft 124 kts 341°
2026-04-20 15:49 48.05388 16.60607 1374 ft 125 kts 341°
2026-04-20 15:49 48.06231 16.60250 1171 ft 130 kts 343°
2026-04-20 15:50 48.07075 16.59887 974 ft 125 kts 343°
2026-04-20 15:50 48.07927 16.59525 833 ft 126 kts 343°
2026-04-20 15:50 48.08769 16.59175 663 ft 125 kts 344°
2026-04-20 15:50 48.09556 16.58843 611 ft 103 kts 344°
2026-04-20 15:51 48.10083 16.58621 612 ft 59 kts 344°
2026-04-20 15:51 48.10419 16.58477 615 ft 45 kts 344°
2026-04-20 15:51 48.10698 16.58358 614 ft 39 kts 344°
2026-04-20 15:51 48.10930 16.58252 616 ft 27 kts 329°
2026-04-20 15:52 48.11051 16.58042 617 ft 28 kts 296°
2026-04-20 15:52 48.11131 16.57793 615 ft 20 kts 294°
2026-04-20 15:52 48.11197 16.57592 612 ft 23 kts 296°
2026-04-20 15:53 48.11351 16.57121 612 ft 27 kts 296°
2026-04-20 15:53 48.11426 16.56900 613 ft 17 kts 308°
2026-04-20 15:53 48.11533 16.56917 613 ft 18 kts 15°
2026-04-20 15:53 48.11611 16.56813 617 ft 16 kts 298°
2026-04-20 15:54 48.11657 16.56676 610 ft 9 kts 296°
2026-04-20 15:54 48.11695 16.56646 612 ft 7 kts 19°
2026-04-20 15:54 48.11737 16.56677 610 ft 4 kts 25°
2026-04-20 15:54 48.11740 16.56679 610 ft 0 kts 25°